,,,PA_Meas_PMT16A,,PR_Meas_QMR101_102,,RH_Meas_QMH101,,SR_Meas_QMS101,,TA_Meas_QMH101,,GenWind,,GenWind,
date,time,status,PA,status,PR,status,RH,status,SR,status,TA,status,DirAvg,status,SpdAvg,
2012-04-02, 00:00:05,VALID,1007.81,VALID,0,VALID,89.9445,VALID,0,VALID,23.4293,VALID,2,VALID,0.539453,
2012-04-02, 00:01:05,VALID,1007.81,VALID,0,VALID,89.7385,VALID,0,VALID,23.4293,VALID,351,VALID,0.517578,
2012-04-02, 00:02:05,VALID,1007.8,VALID,0,VALID,89.4868,VALID,0,VALID,23.447,VALID,351,VALID,1.65898,
2012-04-02, 00:03:05,VALID,1007.78,VALID,0,VALID,89.2808,VALID,0,VALID,23.4877,VALID,141,VALID,0.360938,
2012-04-02, 00:04:05,VALID,1007.8,VALID,0,VALID,89.2503,VALID,0,VALID,23.5266,VALID,1,VALID,0.573438,
2012-04-02, 00:05:05,VALID,1007.8,VALID,0,VALID,89.0519,VALID,0,VALID,23.5266,VALID,3,VALID,0.531641,
2012-04-02, 00:06:05,VALID,1007.79,VALID,0,VALID,88.907,VALID,0,VALID,23.546,VALID,351,VALID,1.03359,
2012-04-02, 00:07:05,VALID,1007.8,VALID,0,VALID,89.0214,VALID,0,VALID,23.5655,VALID,285,VALID,0.541016,
2012-04-02, 00:08:05,VALID,1007.83,VALID,0,VALID,89.1435,VALID,0,VALID,23.5655,VALID,273,VALID,0.750391,
2012-04-02, 00:09:05,VALID,1007.84,VALID,0,VALID,89.0595,VALID,0,VALID,23.5868,VALID,352,VALID,0.202344,
2012-04-02, 00:10:05,VALID,1007.79,VALID,0,VALID,88.8765,VALID,0,VALID,23.5655,VALID,345,VALID,1.16953,
2012-04-02, 00:11:05,VALID,1007.77,VALID,0,VALID,88.7925,VALID,0,VALID,23.5655,VALID,357,VALID,1.57266,
2012-04-02, 00:12:05,VALID,1007.8,VALID,0,VALID,89.0595,VALID,0,VALID,23.5655,VALID,343,VALID,0.698438,
2012-04-02, 00:13:05,VALID,1007.8,VALID,0,VALID,89.2274,VALID,0,VALID,23.546,VALID,271,VALID,0.565234,
2012-04-02, 00:14:05,VALID,1007.83,VALID,0,VALID,89.3037,VALID,0,VALID,23.5673,VALID,285,VALID,0.64375,
2012-04-02, 00:15:05,VALID,1007.83,VALID,0,VALID,89.1435,VALID,0,VALID,23.5266,VALID,355,VALID,1.23711,
2012-04-02, 00:16:05,VALID,1007.83,VALID,0,VALID,89.4105,VALID,0,VALID,23.5071,VALID,345,VALID,0.934766,
2012-04-02, 00:17:05,VALID,1007.8,VALID,0,VALID,89.6088,VALID,0,VALID,23.5071,VALID,357,VALID,0.741406,
2012-04-02, 00:18:05,VALID,1007.82,VALID,0,VALID,89.7843,VALID,0,VALID,23.4664,VALID,359,VALID,1.02344,
2012-04-02, 00:19:05,VALID,1007.79,VALID,0,VALID,89.8606,VALID,0,VALID,23.4682,VALID,6,VALID,1.20703,
2012-04-02, 00:20:05,VALID,1007.82,VALID,0,VALID,89.7156,VALID,0,VALID,23.4682,VALID,351,VALID,1.40117,
2012-04-02, 00:21:05,VALID,1007.8,VALID,0,VALID,89.5402,VALID,0,VALID,23.447,VALID,327,VALID,1.32187,
2012-04-02, 00:22:05,VALID,1007.83,VALID,0,VALID,89.5402,VALID,0,VALID,23.5089,VALID,250,VALID,0.509766,
2012-04-02, 00:23:04,VALID,1007.8,VALID,0,VALID,89.38,VALID,0,VALID,23.5071,VALID,357,VALID,1.35391,
2012-04-02, 00:24:04,VALID,1007.79,VALID,0,VALID,89.2274,VALID,0,VALID,23.5266,VALID,351,VALID,1.30547,
2012-04-02, 00:25:04,VALID,1007.79,VALID,0,VALID,89.0214,VALID,0,VALID,23.5071,VALID,337,VALID,0.801562,
2012-04-02, 00:26:04,VALID,1007.78,VALID,0,VALID,89.1206,VALID,0,VALID,23.5248,VALID,288,VALID,0.428906,
2012-04-02, 00:27:04,VALID,1007.73,VALID,0,VALID,89.2274,VALID,0,VALID,23.5443,VALID,356,VALID,0.589453,
2012-04-02, 00:28:04,VALID,1007.73,VALID,0,VALID,89.029,VALID,0,VALID,23.546,VALID,242,VALID,0.773828,
2012-04-02, 00:29:04,VALID,1007.72,VALID,0,VALID,89.0061,VALID,0,VALID,23.5248,VALID,347,VALID,0.585156,
2012-04-02, 00:30:04,VALID,1007.72,VALID,0,VALID,88.7773,VALID,0,VALID,23.585,VALID,38,VALID,0.614453,
2012-04-02, 00:31:04,VALID,1007.71,VALID,0,VALID,88.5255,VALID,0,VALID,23.5655,VALID,357,VALID,1.28008,
2012-04-02, 00:32:04,VALID,1007.7,VALID,0,VALID,88.4569,VALID,0,VALID,23.585,VALID,327,VALID,0.976953,
2012-04-02, 00:33:04,VALID,1007.67,VALID,0,VALID,88.4111,VALID,0,VALID,23.6257,VALID,338,VALID,1.125,
2012-04-02, 00:34:04,VALID,1007.66,VALID,0,VALID,88.4645,VALID,0,VALID,23.6044,VALID,325,VALID,0.884766,
2012-04-02, 00:35:04,VALID,1007.65,VALID,0,VALID,88.6476,VALID,0,VALID,23.6257,VALID,331,VALID,0.61875,
2012-04-02, 00:36:04,VALID,1007.62,VALID,0,VALID,88.2585,VALID,0,VALID,23.6239,VALID,315,VALID,0.814062,
2012-04-02, 00:37:04,VALID,1007.62,VALID,0,VALID,88.3958,VALID,0,VALID,23.6452,VALID,356,VALID,1.05508,
2012-04-02, 00:38:04,VALID,1007.6,VALID,0,VALID,88.5179,VALID,0,VALID,23.6257,VALID,354,VALID,0.617188,
2012-04-02, 00:39:04,VALID,1007.59,VALID,0,VALID,88.6171,VALID,0,VALID,23.6062,VALID,358,VALID,0.710938,
2012-04-02, 00:40:04,VALID,1007.56,VALID,0,VALID,88.5942,VALID,0,VALID,23.5868,VALID,344,VALID,1.11758,
2012-04-02, 00:41:04,VALID,1007.59,VALID,0,VALID,88.4264,VALID,0,VALID,23.6062,VALID,349,VALID,0.433594,
2012-04-02, 00:42:04,VALID,1007.56,VALID,0,VALID,87.9686,VALID,0,VALID,23.6062,VALID,350,VALID,1.03047,
2012-04-02, 00:43:04,VALID,1007.51,VALID,0,VALID,88.3195,VALID,0,VALID,23.6044,VALID,359,VALID,0.478516,
2012-04-02, 00:44:04,VALID,1007.5,VALID,0,VALID,88.0754,VALID,0,VALID,23.6062,VALID,357,VALID,1.01875,
2012-04-02, 00:45:04,VALID,1007.5,VALID,0,VALID,87.9,VALID,0,VALID,23.585,VALID,354,VALID,1.1832,
2012-04-02, 00:46:04,VALID,1007.51,VALID,0,VALID,87.9381,VALID,0,VALID,23.6044,VALID,349,VALID,1.30664,
2012-04-02, 00:47:04,VALID,1007.49,VALID,0,VALID,87.6558,VALID,0,VALID,23.6044,VALID,333,VALID,1.32539,
2012-04-02, 00:48:04,VALID,1007.49,VALID,0,VALID,87.8542,VALID,0,VALID,23.6434,VALID,349,VALID,0.616016,
2012-04-02, 00:49:04,VALID,1007.48,VALID,0,VALID,87.7398,VALID,0,VALID,23.6434,VALID,332,VALID,1.12031,
2012-04-02, 00:50:04,VALID,1007.45,VALID,0,VALID,87.1752,VALID,0,VALID,23.6628,VALID,353,VALID,0.896875,
2012-04-02, 00:51:04,VALID,1007.44,VALID,0,VALID,87.015,VALID,0,VALID,23.6823,VALID,358,VALID,1.08555,
2012-04-02, 00:52:04,VALID,1007.44,VALID,0,VALID,87.1294,VALID,0,VALID,23.7425,VALID,339,VALID,0.491406,
2012-04-02, 00:53:04,VALID,1007.46,VALID,0,VALID,87.0608,VALID,0,VALID,23.7,VALID,344,VALID,1.08633,
2012-04-02, 00:54:04,VALID,1007.4,VALID,0,VALID,87.4499,VALID,0,VALID,23.7212,VALID,268,VALID,0.367578,
2012-04-02, 00:55:04,VALID,1007.38,VALID,0,VALID,87.0455,VALID,0,VALID,23.7425,VALID,360,VALID,1.28437,
2012-04-02, 00:56:04,VALID,1007.39,VALID,0,VALID,87.2362,VALID,0.0815089,VALID,23.7212,VALID,358,VALID,0.773047,
2012-04-02, 00:57:04,VALID,1007.36,VALID,0,VALID,87.1294,VALID,0,VALID,23.7212,VALID,354,VALID,0.969531,
2012-04-02, 00:58:04,VALID,1007.35,VALID,0,VALID,87.2744,VALID,0,VALID,23.7017,VALID,351,VALID,1.39258,
2012-04-02, 00:59:04,VALID,1007.32,VALID,0,VALID,87.4727,VALID,0,VALID,23.7017,VALID,340,VALID,0.327734,
2012-04-02, 01:00:04,VALID,1007.32,VALID,0,VALID,87.5109,VALID,0,VALID,23.7017,VALID,360,VALID,0.964844,
2012-04-02, 01:01:04,VALID,1007.32,VALID,0,VALID,87.3354,VALID,0,VALID,23.6823,VALID,325,VALID,1.02656,
2012-04-02, 01:02:04,VALID,1007.31,VALID,0,VALID,87.6482,VALID,0,VALID,23.6805,VALID,313,VALID,0.658203,
2012-04-02, 01:03:04,VALID,1007.26,VALID,0,VALID,87.5567,VALID,0,VALID,23.661,VALID,344,VALID,1.50742,
2012-04-02, 01:04:04,VALID,1007.29,VALID,0,VALID,87.8847,VALID,0,VALID,23.6416,VALID,323,VALID,1.11406,
2012-04-02, 01:05:04,VALID,1007.25,VALID,0,VALID,88.1288,VALID,0,VALID,23.6434,VALID,353,VALID,0.549219,
2012-04-02, 01:06:04,VALID,1007.25,VALID,0,VALID,88.1517,VALID,0,VALID,23.6257,VALID,356,VALID,1.75039,
2012-04-02, 01:07:04,VALID,1007.23,VALID,0,VALID,87.9,VALID,0,VALID,23.6044,VALID,346,VALID,1.68086,
2012-04-02, 01:08:04,VALID,1007.18,VALID,0,VALID,87.8771,VALID,0,VALID,23.6646,VALID,289,VALID,0.910937,
2012-04-02, 01:09:04,VALID,1007.19,VALID,0,VALID,87.549,VALID,0,VALID,23.6841,VALID,348,VALID,1.05781,
2012-04-02, 01:10:04,VALID,1007.18,VALID,0,VALID,87.7321,VALID,0,VALID,23.6628,VALID,356,VALID,0.877344,
2012-04-02, 01:11:04,VALID,1007.18,VALID,0,VALID,87.9305,VALID,0,VALID,23.6823,VALID,310,VALID,0.824219,
2012-04-02, 01:12:04,VALID,1007.17,VALID,0,VALID,88.1593,VALID,0,VALID,23.7035,VALID,353,VALID,0.722656,
2012-04-02, 01:13:04,VALID,1007.2,VALID,0,VALID,87.9991,VALID,0,VALID,23.6628,VALID,347,VALID,1.42148,
2012-04-02, 01:14:04,VALID,1007.17,VALID,0,VALID,88.1517,VALID,0,VALID,23.6646,VALID,353,VALID,1.83477,
2012-04-02, 01:15:04,VALID,1007.18,VALID,0,VALID,88.3501,VALID,0,VALID,23.6434,VALID,315,VALID,0.947656,
2012-04-02, 01:16:04,VALID,1007.17,VALID,0,VALID,88.1288,VALID,0,VALID,23.6044,VALID,349,VALID,1.56641,
2012-04-02, 01:17:04,VALID,1007.17,VALID,0,VALID,88.1212,VALID,0,VALID,23.6239,VALID,328,VALID,1.0668,
2012-04-02, 01:18:04,VALID,1007.17,VALID,0,VALID,88.228,VALID,0,VALID,23.6434,VALID,325,VALID,0.644531,
2012-04-02, 01:19:04,VALID,1007.15,VALID,0,VALID,87.8313,VALID,0,VALID,23.6434,VALID,343,VALID,1.72812,
2012-04-02, 01:20:04,VALID,1007.15,VALID,0,VALID,88.0983,VALID,0,VALID,23.6434,VALID,301,VALID,0.600781,
2012-04-02, 01:21:04,VALID,1007.14,VALID,0,VALID,88.1059,VALID,0,VALID,23.6434,VALID,344,VALID,0.241797,
2012-04-02, 01:22:04,VALID,1007.13,VALID,0,VALID,88.0373,VALID,0,VALID,23.6628,VALID,345,VALID,1.50547,
2012-04-02, 01:23:04,VALID,1007.11,VALID,0,VALID,88.0602,VALID,0,VALID,23.6646,VALID,352,VALID,1.91875,
2012-04-02, 01:24:04,VALID,1007.12,VALID,0,VALID,88.2051,VALID,0,VALID,23.6434,VALID,349,VALID,0.973437,
2012-04-02, 01:25:04,VALID,1007.13,VALID,0,VALID,87.9839,VALID,0,VALID,23.6434,VALID,350,VALID,1.92891,
2012-04-02, 01:26:04,VALID,1007.15,VALID,0,VALID,88.1593,VALID,0,VALID,23.6628,VALID,335,VALID,0.714453,
2012-04-02, 01:27:04,VALID,1007.11,VALID,0,VALID,88.1059,VALID,0,VALID,23.6416,VALID,346,VALID,1.72656,
2012-04-02, 01:28:04,VALID,1007.11,VALID,0,VALID,88.3501,VALID,0,VALID,23.6841,VALID,357,VALID,1.34805,
2012-04-02, 01:29:04,VALID,1007.11,VALID,0,VALID,88.4492,VALID,0,VALID,23.6434,VALID,340,VALID,0.849219,
2012-04-02, 01:30:04,VALID,1007.1,VALID,0,VALID,88.289,VALID,0,VALID,23.6646,VALID,339,VALID,1.71563,
2012-04-02, 01:31:04,VALID,1007.08,VALID,0,VALID,88.4416,VALID,0,VALID,23.6434,VALID,355,VALID,1.54883,
2012-04-02, 01:32:04,VALID,1007.1,VALID,0,VALID,88.5484,VALID,0,VALID,23.6239,VALID,327,VALID,0.603906,
2012-04-02, 01:33:04,VALID,1007.07,VALID,0,VALID,88.4416,VALID,0,VALID,23.6239,VALID,347,VALID,1.39961,
2012-04-02, 01:34:04,VALID,1007.07,VALID,0,VALID,88.6171,VALID,0,VALID,23.6434,VALID,326,VALID,0.710156,
2012-04-02, 01:35:04,VALID,1007.06,VALID,0,VALID,88.3119,VALID,0,VALID,23.6452,VALID,352,VALID,1.80156,
2012-04-02, 01:36:04,VALID,1007.04,VALID,0,VALID,88.4645,VALID,0,VALID,23.6221,VALID,342,VALID,0.994531,
2012-04-02, 01:37:04,VALID,1007.05,VALID,0,VALID,88.5713,VALID,0,VALID,23.6239,VALID,350,VALID,0.992188,
2012-04-02, 01:38:04,VALID,1007.04,VALID,0,VALID,88.2738,VALID,0,VALID,23.6239,VALID,344,VALID,0.940625,
2012-04-02, 01:39:04,VALID,1007.03,VALID,0,VALID,88.3195,VALID,0,VALID,23.6434,VALID,351,VALID,0.955469,
2012-04-02, 01:40:04,VALID,1007.03,VALID,0,VALID,88.2509,VALID,0,VALID,23.6434,VALID,314,VALID,1.39453,
2012-04-02, 01:41:04,VALID,1007.07,VALID,0,VALID,88.4187,VALID,0,VALID,23.6434,VALID,357,VALID,0.468359,
2012-04-02, 01:42:04,VALID,1007.03,VALID,0,VALID,88.0373,VALID,0,VALID,23.6434,VALID,3,VALID,1.15391,
2012-04-02, 01:43:04,VALID,1007,VALID,0,VALID,88.1593,VALID,0.0815089,VALID,23.6434,VALID,352,VALID,0.9375,
2012-04-02, 01:44:04,VALID,1006.99,VALID,0,VALID,88.0754,VALID,0,VALID,23.6434,VALID,336,VALID,1.34648,
2012-04-02, 01:45:04,VALID,1006.97,VALID,0,VALID,88.2433,VALID,0,VALID,23.6239,VALID,348,VALID,1.28477,
2012-04-02, 01:46:04,VALID,1006.97,VALID,0,VALID,88.3958,VALID,0,VALID,23.6026,VALID,342,VALID,0.827734,
2012-04-02, 01:47:04,VALID,1006.97,VALID,0,VALID,88.0831,VALID,0.0815089,VALID,23.6044,VALID,336,VALID,1.71875,
2012-04-02, 01:48:04,VALID,1006.95,VALID,0,VALID,88.2204,VALID,0,VALID,23.6044,VALID,351,VALID,1.30195,
2012-04-02, 01:49:04,VALID,1006.93,VALID,0,VALID,87.9381,VALID,0,VALID,23.6044,VALID,344,VALID,1.52461,
2012-04-02, 01:50:04,VALID,1006.96,VALID,0,VALID,88.228,VALID,0,VALID,23.6044,VALID,337,VALID,0.603906,
2012-04-02, 01:51:04,VALID,1006.93,VALID,0,VALID,87.9762,VALID,0,VALID,23.6044,VALID,334,VALID,1.30234,
2012-04-02, 01:52:04,VALID,1006.92,VALID,0.5,VALID,87.9686,VALID,0,VALID,23.6044,VALID,343,VALID,1.21133,
2012-04-02, 01:53:04,VALID,1006.91,VALID,0,VALID,87.9076,VALID,0,VALID,23.6628,VALID,355,VALID,0.942578,
2012-04-02, 01:54:04,VALID,1006.91,VALID,0,VALID,87.8694,VALID,0,VALID,23.6628,VALID,341,VALID,0.96875,
2012-04-02, 01:55:04,VALID,1006.92,VALID,0,VALID,87.7092,VALID,0,VALID,23.6628,VALID,343,VALID,1.02305,
2012-04-02, 01:56:04,VALID,1006.93,VALID,0,VALID,87.5872,VALID,0,VALID,23.6823,VALID,351,VALID,1.0957,
2012-04-02, 01:57:04,VALID,1006.94,VALID,0,VALID,87.3507,VALID,0,VALID,23.7017,VALID,353,VALID,0.866406,
2012-04-02, 01:58:04,VALID,1006.93,VALID,0,VALID,87.5338,VALID,0,VALID,23.7212,VALID,322,VALID,0.503906,
2012-04-02, 01:59:04,VALID,1006.89,VALID,0,VALID,87.5261,VALID,0,VALID,23.7,VALID,345,VALID,0.680469,
2012-04-02, 02:00:04,VALID,1006.93,VALID,0,VALID,87.2057,VALID,0,VALID,23.7407,VALID,329,VALID,0.578516,
2012-04-02, 02:01:04,VALID,1006.92,VALID,0,VALID,87.3278,VALID,0.0815089,VALID,23.7407,VALID,329,VALID,0.282031,
2012-04-02, 02:02:04,VALID,1006.9,VALID,0,VALID,87.221,VALID,0,VALID,23.7194,VALID,32,VALID,0.917969,
2012-04-02, 02:03:04,VALID,1006.9,VALID,0,VALID,86.9998,VALID,0,VALID,23.7814,VALID,351,VALID,1.125,
2012-04-02, 02:04:04,VALID,1006.88,VALID,0,VALID,86.7938,VALID,0,VALID,23.7796,VALID,4,VALID,1.18359,
2012-04-02, 02:05:04,VALID,1006.87,VALID,0,VALID,86.7709,VALID,0,VALID,23.7991,VALID,340,VALID,1.12852,
2012-04-02, 02:06:04,VALID,1006.84,VALID,0,VALID,86.9158,VALID,0,VALID,23.8185,VALID,344,VALID,0.464453,
2012-04-02, 02:07:04,VALID,1006.87,VALID,0,VALID,86.6641,VALID,0,VALID,23.8185,VALID,342,VALID,1.39141,
2012-04-02, 02:08:04,VALID,1006.84,VALID,0,VALID,86.748,VALID,0,VALID,23.8185,VALID,338,VALID,1.18164,
2012-04-02, 02:09:04,VALID,1006.84,VALID,0,VALID,86.5649,VALID,0,VALID,23.8185,VALID,359,VALID,1.50234,
2012-04-02, 02:10:04,VALID,1006.87,VALID,0,VALID,86.7022,VALID,0,VALID,23.838,VALID,332,VALID,1.12109,
2012-04-02, 02:11:04,VALID,1006.84,VALID,0,VALID,86.4886,VALID,0,VALID,23.838,VALID,350,VALID,1.64258,
2012-04-02, 02:12:04,VALID,1006.86,VALID,0,VALID,86.6641,VALID,0,VALID,23.838,VALID,345,VALID,1.40234,
2012-04-02, 02:13:04,VALID,1006.85,VALID,0,VALID,86.7175,VALID,0,VALID,23.838,VALID,339,VALID,1.6668,
2012-04-02, 02:14:04,VALID,1006.82,VALID,0,VALID,86.8777,VALID,0,VALID,23.8167,VALID,349,VALID,1.01719,
2012-04-02, 02:15:04,VALID,1006.81,VALID,0,VALID,86.9006,VALID,0.0815089,VALID,23.8593,VALID,354,VALID,1.51602,
2012-04-02, 02:16:04,VALID,1006.79,VALID,0,VALID,87.0913,VALID,0.0815089,VALID,23.8362,VALID,353,VALID,0.8375,
2012-04-02, 02:17:04,VALID,1006.79,VALID,0,VALID,86.954,VALID,0,VALID,23.8575,VALID,306,VALID,1.54883,
2012-04-02, 02:18:04,VALID,1006.82,VALID,0,VALID,86.7404,VALID,0,VALID,23.8575,VALID,331,VALID,1.58203,
2012-04-02, 02:19:04,VALID,1006.77,VALID,0,VALID,86.748,VALID,0,VALID,23.8769,VALID,1,VALID,1.30273,
2012-04-02, 02:20:04,VALID,1006.75,VALID,0,VALID,86.8167,VALID,0,VALID,23.8751,VALID,354,VALID,1.11211,
2012-04-02, 02:21:04,VALID,1006.73,VALID,0,VALID,86.6946,VALID,0,VALID,23.8964,VALID,360,VALID,1.38945,
2012-04-02, 02:22:04,VALID,1006.73,VALID,0,VALID,86.5344,VALID,0,VALID,23.9566,VALID,360,VALID,1.3457,
2012-04-02, 02:23:04,VALID,1006.71,VALID,0,VALID,86.4505,VALID,0,VALID,23.9548,VALID,331,VALID,1.18203,
2012-04-02, 02:24:04,VALID,1006.7,VALID,0,VALID,86.2216,VALID,0,VALID,23.9742,VALID,352,VALID,1.20469,
2012-04-02, 02:25:04,VALID,1006.72,VALID,0,VALID,86.0843,VALID,0,VALID,24.0132,VALID,346,VALID,0.571875,
2012-04-02, 02:26:04,VALID,1006.69,VALID,0,VALID,85.802,VALID,0,VALID,24.0539,VALID,354,VALID,0.276563,
2012-04-02, 02:27:04,VALID,1006.68,VALID,0,VALID,85.4358,VALID,0,VALID,24.0326,VALID,328,VALID,1.18086,
2012-04-02, 02:28:04,VALID,1006.66,VALID,0,VALID,85.4358,VALID,0,VALID,24.0521,VALID,354,VALID,0.871484,
2012-04-02, 02:29:04,VALID,1006.7,VALID,0,VALID,85.6494,VALID,0,VALID,24.091,VALID,2,VALID,0.604297,
2012-04-02, 02:30:04,VALID,1006.7,VALID,0,VALID,85.3977,VALID,0,VALID,24.091,VALID,352,VALID,0.930078,
2012-04-02, 02:31:04,VALID,1006.7,VALID,0,VALID,85.2146,VALID,0,VALID,24.1123,VALID,349,VALID,1.02656,
2012-04-02, 02:32:04,VALID,1006.7,VALID,0,VALID,84.7416,VALID,0,VALID,24.091,VALID,350,VALID,1.20625,
2012-04-02, 02:33:04,VALID,1006.67,VALID,0,VALID,85.0086,VALID,0,VALID,24.1513,VALID,318,VALID,0.698828,
2012-04-02, 02:34:04,VALID,1006.66,VALID,0,VALID,84.6501,VALID,0,VALID,24.1494,VALID,350,VALID,0.5375,
2012-04-02, 02:35:04,VALID,1006.67,VALID,0,VALID,84.0931,VALID,0,VALID,24.1689,VALID,337,VALID,0.903516,
2012-04-02, 02:36:04,VALID,1006.66,VALID,0,VALID,83.4371,VALID,0,VALID,24.2078,VALID,341,VALID,1.32539,
2012-04-02, 02:37:04,VALID,1006.64,VALID,0,VALID,83.376,VALID,0,VALID,24.2468,VALID,353,VALID,1.14453,
2012-04-02, 02:38:04,VALID,1006.64,VALID,0,VALID,83.3608,VALID,0,VALID,24.2662,VALID,348,VALID,1.05977,
2012-04-02, 02:39:04,VALID,1006.64,VALID,0,VALID,83.2769,VALID,0,VALID,24.2857,VALID,357,VALID,1.09141,
2012-04-02, 02:40:04,VALID,1006.66,VALID,0,VALID,83.3303,VALID,0,VALID,24.307,VALID,347,VALID,1.09922,
2012-04-02, 02:41:04,VALID,1006.64,VALID,0,VALID,82.9793,VALID,0,VALID,24.307,VALID,349,VALID,0.603906,
2012-04-02, 02:42:04,VALID,1006.67,VALID,0,VALID,82.8496,VALID,0,VALID,24.3052,VALID,348,VALID,0.755859,
2012-04-02, 02:43:04,VALID,1006.66,VALID,0,VALID,83.3303,VALID,0,VALID,24.3459,VALID,348,VALID,0.219531,
2012-04-02, 02:44:04,VALID,1006.63,VALID,0,VALID,83.2006,VALID,0,VALID,24.3459,VALID,342,VALID,0.148438,
2012-04-02, 02:45:04,VALID,1006.61,VALID,0,VALID,82.8115,VALID,0,VALID,24.3246,VALID,343,VALID,0.324219,
2012-04-02, 02:46:04,VALID,1006.6,VALID,0,VALID,83.1243,VALID,0,VALID,24.3246,VALID,343,VALID,0.105859,
2012-04-02, 02:47:04,VALID,1006.55,VALID,0,VALID,82.903,VALID,0,VALID,24.3246,VALID,326,VALID,0.601953,
2012-04-02, 02:48:04,VALID,1006.53,VALID,0,VALID,82.9412,VALID,0,VALID,24.3246,VALID,310,VALID,0.511719,
2012-04-02, 02:49:04,VALID,1006.54,VALID,0,VALID,83.0938,VALID,0,VALID,24.3459,VALID,318,VALID,0,
2012-04-02, 02:50:04,VALID,1006.52,VALID,0,VALID,83.0327,VALID,0,VALID,24.3246,VALID,326,VALID,0.349219,
2012-04-02, 02:51:04,VALID,1006.53,VALID,0,VALID,83.0938,VALID,0,VALID,24.3265,VALID,347,VALID,0.811328,
2012-04-02, 02:52:04,VALID,1006.5,VALID,0,VALID,83.5362,VALID,0,VALID,24.3052,VALID,349,VALID,0.355078,
2012-04-02, 02:53:04,VALID,1006.48,VALID,0,VALID,83.3074,VALID,0,VALID,24.2662,VALID,20,VALID,0.433203,
2012-04-02, 02:54:04,VALID,1006.48,VALID,0,VALID,83.521,VALID,0,VALID,24.2468,VALID,342,VALID,0.882031,
2012-04-02, 02:55:04,VALID,1006.47,VALID,0,VALID,83.4523,VALID,0,VALID,24.2468,VALID,345,VALID,0.426562,
2012-04-02, 02:56:04,VALID,1006.47,VALID,0,VALID,83.6964,VALID,0,VALID,24.2273,VALID,347,VALID,0.387891,
2012-04-02, 02:57:04,VALID,1006.47,VALID,0,VALID,83.7346,VALID,0,VALID,24.2273,VALID,348,VALID,0.0671875,
2012-04-02, 02:58:04,VALID,1006.45,VALID,0,VALID,83.6202,VALID,0,VALID,24.2078,VALID,346,VALID,0.389062,
2012-04-02, 02:59:04,VALID,1006.45,VALID,0,VALID,83.727,VALID,0,VALID,24.2078,VALID,284,VALID,0.636328,
2012-04-02, 03:00:04,VALID,1006.44,VALID,0,VALID,83.8185,VALID,0,VALID,24.2291,VALID,342,VALID,0.770703,
2012-04-02, 03:01:04,VALID,1006.43,VALID,0,VALID,83.3913,VALID,0,VALID,24.2078,VALID,345,VALID,1.06992,
2012-04-02, 03:02:04,VALID,1006.45,VALID,0,VALID,83.5896,VALID,0,VALID,24.2486,VALID,342,VALID,0.522266,
2012-04-02, 03:03:04,VALID,1006.47,VALID,0,VALID,83.4981,VALID,0,VALID,24.2486,VALID,6,VALID,0.375781,
2012-04-02, 03:04:04,VALID,1006.44,VALID,0,VALID,83.4981,VALID,0,VALID,24.2468,VALID,351,VALID,1.13555,
2012-04-02, 03:05:04,VALID,1006.45,VALID,0,VALID,83.6583,VALID,0,VALID,24.2468,VALID,342,VALID,1.78711,
2012-04-02, 03:06:04,VALID,1006.46,VALID,0,VALID,84.055,VALID,0,VALID,24.2273,VALID,349,VALID,1.56484,
2012-04-02, 03:07:04,VALID,1006.44,VALID,0,VALID,84.0931,VALID,0,VALID,24.1689,VALID,344,VALID,1.61055,
2012-04-02, 03:08:04,VALID,1006.45,VALID,0,VALID,84.5967,VALID,0,VALID,24.1476,VALID,348,VALID,1.33477,
2012-04-02, 03:09:04,VALID,1006.42,VALID,0,VALID,84.8484,VALID,0,VALID,24.13,VALID,348,VALID,1.29023,
2012-04-02, 03:10:04,VALID,1006.45,VALID,0,VALID,85.001,VALID,0,VALID,24.1123,VALID,337,VALID,0.964844,
2012-04-02, 03:11:04,VALID,1006.45,VALID,0,VALID,85.1459,VALID,0,VALID,24.0716,VALID,358,VALID,0.864844,
2012-04-02, 03:12:04,VALID,1006.47,VALID,0,VALID,85.4206,VALID,0,VALID,24.0734,VALID,337,VALID,1.20938,
2012-04-02, 03:13:04,VALID,1006.46,VALID,0,VALID,85.5426,VALID,0,VALID,24.0326,VALID,350,VALID,1.1957,
2012-04-02, 03:14:04,VALID,1006.46,VALID,0,VALID,85.5426,VALID,0,VALID,24.0734,VALID,357,VALID,0.569141,
2012-04-02, 03:15:04,VALID,1006.41,VALID,0,VALID,85.4587,VALID,0,VALID,24.0929,VALID,343,VALID,0.785156,
2012-04-02, 03:16:04,VALID,1006.41,VALID,0,VALID,85.4511,VALID,0,VALID,24.0716,VALID,356,VALID,1.43164,
2012-04-02, 03:17:04,VALID,1006.38,VALID,0,VALID,85.4816,VALID,0,VALID,24.0521,VALID,315,VALID,0.4,
2012-04-02, 03:18:04,VALID,1006.35,VALID,0,VALID,85.6952,VALID,0,VALID,24.0734,VALID,300,VALID,0.421094,
2012-04-02, 03:19:04,VALID,1006.34,VALID,0,VALID,85.3748,VALID,0,VALID,24.0539,VALID,295,VALID,0.832031,
2012-04-02, 03:20:04,VALID,1006.3,VALID,0,VALID,85.3901,VALID,0,VALID,24.0539,VALID,278,VALID,0.305469,
2012-04-02, 03:21:04,VALID,1006.31,VALID,0,VALID,85.2985,VALID,0,VALID,24.0539,VALID,285,VALID,0.779297,
2012-04-02, 03:22:04,VALID,1006.31,VALID,0,VALID,85.1536,VALID,0,VALID,24.0521,VALID,299,VALID,0.487109,
2012-04-02, 03:23:04,VALID,1006.3,VALID,0,VALID,85.329,VALID,0.0815089,VALID,24.0521,VALID,253,VALID,0.960547,
2012-04-02, 03:24:04,VALID,1006.29,VALID,0,VALID,84.9781,VALID,0,VALID,24.0326,VALID,256,VALID,0.421875,
2012-04-02, 03:25:04,VALID,1006.3,VALID,0,VALID,84.9934,VALID,0,VALID,24.0539,VALID,256,VALID,0.15,
2012-04-02, 03:26:04,VALID,1006.24,VALID,0,VALID,84.8408,VALID,0,VALID,24.0326,VALID,281,VALID,0.340625,
2012-04-02, 03:27:04,VALID,1006.23,VALID,0,VALID,84.9781,VALID,0,VALID,24.0539,VALID,357,VALID,0.497266,
2012-04-02, 03:28:04,VALID,1006.23,VALID,0,VALID,85.2299,VALID,0,VALID,24.0345,VALID,357,VALID,0.0230469,
2012-04-02, 03:29:04,VALID,1006.24,VALID,0,VALID,84.734,VALID,0,VALID,23.9937,VALID,357,VALID,1.06602,
2012-04-02, 03:30:04,VALID,1006.23,VALID,0,VALID,84.4288,VALID,0,VALID,23.9937,VALID,334,VALID,1.38789,
2012-04-02, 03:31:04,VALID,1006.24,VALID,0,VALID,84.3525,VALID,0,VALID,24.0345,VALID,356,VALID,1.19297,
2012-04-02, 03:32:04,VALID,1006.25,VALID,0,VALID,83.9177,VALID,0,VALID,24.0521,VALID,344,VALID,1.05586,
2012-04-02, 03:33:04,VALID,1006.22,VALID,0,VALID,83.7193,VALID,0,VALID,24.0716,VALID,337,VALID,1.13672,
2012-04-02, 03:34:04,VALID,1006.23,VALID,0,VALID,83.9863,VALID,0,VALID,24.1105,VALID,270,VALID,0.766406,
2012-04-02, 03:35:04,VALID,1006.23,VALID,0,VALID,84.1237,VALID,0,VALID,24.13,VALID,341,VALID,0.364062,
2012-04-02, 03:36:04,VALID,1006.22,VALID,0,VALID,83.9482,VALID,0,VALID,24.13,VALID,347,VALID,1.03359,
2012-04-02, 03:37:04,VALID,1006.2,VALID,0,VALID,84.1313,VALID,0,VALID,24.1513,VALID,318,VALID,0.79375,
2012-04-02, 03:38:04,VALID,1006.23,VALID,0,VALID,84.2839,VALID,0,VALID,24.1105,VALID,358,VALID,1.04922,
2012-04-02, 03:39:04,VALID,1006.19,VALID,0,VALID,84.4517,VALID,0,VALID,24.1105,VALID,355,VALID,1.12891,
2012-04-02, 03:40:04,VALID,1006.15,VALID,0,VALID,84.5356,VALID,0,VALID,24.1318,VALID,343,VALID,1.88164,
2012-04-02, 03:41:04,VALID,1006.17,VALID,0,VALID,84.5509,VALID,0,VALID,24.1513,VALID,323,VALID,1.04883,
2012-04-02, 03:42:04,VALID,1006.15,VALID,0,VALID,84.6806,VALID,0,VALID,24.13,VALID,347,VALID,0.533594,
2012-04-02, 03:43:04,VALID,1006.08,VALID,0,VALID,84.7492,VALID,0,VALID,24.1707,VALID,337,VALID,0.799609,
2012-04-02, 03:44:04,VALID,1006.11,VALID,0,VALID,84.6119,VALID,0,VALID,24.1494,VALID,345,VALID,0.646484,
2012-04-02, 03:45:04,VALID,1006.08,VALID,0,VALID,84.6577,VALID,0,VALID,24.0892,VALID,355,VALID,1.32695,